Starlink 31783

operational
NORAD ID: 59750 Int'l Des: 2024-090 Owner: SPXS Country: US Constellation: starlink
LEOCIRCULAR

Über Starlink 31783

Beschreibung wird geladen...

Live-Position

3D-Globus wird geladen...

Nächste Überflüge

Höhenverlauf

Altitude vs Time

uPlot chart will show altitude changes over time

Zweizeiliger Elementsatz

1 59750U 24090W 25305.64861744 -.00000430 00000-0 -61176-5 0 9991
2 59750 43.0012 186.9703 0000873 267.3139 92.7612 15.27569459 83844
Epoch: 1. Nov. 2025 • Age: 18 hours

Aktueller Status

Höhe 488.4 km
Geschwindigkeit 7.62 km/s
Subsatellitenpunkt -23.68°S, 157.9°W
Startdatum 13. Mai 2024
Alter 1.4 years
Typ internet

Technische Details

Klassifizierung Payload
Masse 730.00 kg
Trockenmasse 700.00 kg
Gesamtmasse 730.00 kg
Länge 0.30 m
Durchmesser 4.10 m
Spannweite 29.00 m
Form Box + pan
Hersteller SPXS
Bus-Typ Starlink V2M
Phasenstatus In Orbit
Besitzer/Staat SPXS/US

Große Konstellationen

Loading constellations...